Starlink 6377

operational
NORAD ID: 57341 Int'l Des: 2023-099 Owner: SPXS Country: US Constellation: starlink
LEOCIRCULAR

Starlink 6377について

説明を読み込み中...

リアルタイム位置

3D地球を読み込み中...

次回通過

高度履歴

Altitude vs Time

uPlot chart will show altitude changes over time

軌道要素

1 57341U 23099P 25258.03379020 -.00000563 00000-0 -26609-4 0 9992
2 57341 43.0024 123.4135 0001202 270.9891 89.0814 15.02530837119695
Epoch: Sep 15, 2025 • Age: 24 hours

現在のステータス

高度 561.6 km
速度 7.59 km/s
衛星直下点 36.66°N, 160.05°E
打ち上げ日 Jul 16, 2023
運用期間 2.1 years
タイプ internet

技術仕様

分類 Payload
質量 305.00 kg
乾燥質量 290.00 kg
総質量 305.00 kg
長さ 0.20 m
直径 2.80 m
スパン 9.00 m
形状 Box + pan
製造者 SPXS
バスタイプ Starlink
フェーズステータス In Orbit
所有者/国 SPXS/US

大規模コンステレーション

Loading constellations...